| time (UTC) | temp F | wind direction | speed MPH | gust MPH | rain 1hr in | rain 24hr in | rain mn in | humidity % | barometer mb |
| 20260508023031 | 54 | 225 | 3.0 | 7.0 | 0.01 | 0.28 | 0.03 | 93 | 1013.1 |
| 20260508021530 | 54 | 243 | 3.0 | 8.0 | 0.01 | 0.28 | 0.03 | 94 | 1013.0 |
| 20260508020033 | 55 | 238 | 4.0 | 9.0 | 0.01 | 0.28 | 0.03 | 93 | 1013.0 |
| 20260508014525 | 55 | 189 | 3.0 | 7.0 | 0.00 | 0.28 | 0.02 | 94 | 1013.1 |
| 20260508013026 | 55 | 182 | 2.0 | 5.0 | 0.00 | 0.28 | 0.02 | 94 | 1012.9 |
| 20260508011523 | 55 | 173 | 4.0 | 5.0 | 0.00 | 0.28 | 0.02 | 93 | 1012.9 |
| 20260508010026 | 55 | 173 | 2.0 | 4.0 | 0.00 | 0.28 | 0.02 | 93 | 1012.9 |
| 20260508004523 | 55 | 173 | 2.0 | 5.0 | 0.01 | 0.28 | 0.02 | 93 | 1012.9 |
| 20260508003021 | 55 | 173 | 0.0 | 2.0 | 0.01 | 0.28 | 0.02 | 93 | 1012.8 |
| 20260508001538 | 55 | 173 | 1.0 | 3.0 | 0.02 | 0.28 | 0.02 | 93 | 1012.9 |
| 20260508000021 | 55 | 173 | 2.0 | 3.0 | 0.02 | 0.28 | 0.02 | 93 | 1012.9 |
| 20260507234518 | 55 | 172 | 1.0 | 4.0 | 0.01 | 0.27 | 0.02 | 93 | 1012.7 |
| 20260507233018 | 55 | 172 | 3.0 | 5.0 | 0.01 | 0.27 | 0.02 | 93 | 1012.7 |
| 20260507231514 | 56 | 173 | 1.0 | 4.0 | 0.01 | 0.26 | 0.01 | 92 | 1012.9 |
| 20260507230011 | 56 | 173 | 3.0 | 5.0 | 0.01 | 0.26 | 0.01 | 93 | 1013.0 |
| 20260507224510 | 57 | 173 | 3.0 | 5.0 | 0.02 | 0.26 | 0.01 | 93 | 1013.2 |
| 20260507223008 | 57 | 219 | 1.0 | 3.0 | 0.02 | 0.26 | 0.01 | 92 | 1013.1 |
| 20260507221506 | 57 | 219 | 1.0 | 3.0 | 0.01 | 0.25 | 0.00 | 92 | 1013.0 |
| 20260507220007 | 57 | 219 | 2.0 | 4.0 | 0.02 | 0.25 | 0.00 | 92 | 1012.9 |
| 20260507214504 | 57 | 207 | 1.0 | 4.0 | 0.02 | 0.24 | 0.24 | 92 | 1012.9 |
| 20260507213002 | 57 | 207 | 2.0 | 7.0 | 0.03 | 0.24 | 0.24 | 92 | 1013.0 |
| 20260507211502 | 57 | 214 | 3.0 | 7.0 | 0.09 | 0.24 | 0.24 | 92 | 1012.8 |
| 20260507210059 | 57 | 219 | 3.0 | 8.0 | 0.09 | 0.24 | 0.24 | 92 | 1012.7 |
| 20260507204600 | 57 | 216 | 2.0 | 7.0 | 0.08 | 0.23 | 0.23 | 92 | 1012.5 |
| 20260507203054 | 57 | 224 | 3.0 | 7.0 | 0.06 | 0.21 | 0.21 | 91 | 1012.5 |
| 20260507201559 | 57 | 196 | 4.0 | 9.0 | 0.01 | 0.16 | 0.16 | 91 | 1012.4 |
| 20260507200103 | 57 | 195 | 4.0 | 9.0 | 0.00 | 0.15 | 0.15 | 91 | 1012.4 |
| 20260507194551 | 58 | 228 | 1.0 | 4.0 | 0.00 | 0.15 | 0.15 | 91 | 1012.2 |
| 20260507193052 | 58 | 229 | 1.0 | 3.0 | 0.00 | 0.15 | 0.15 | 90 | 1012.1 |
| 20260507191553 | 58 | 229 | 1.0 | 2.0 | 0.01 | 0.15 | 0.15 | 90 | 1011.8 |
| 20260507190052 | 58 | 229 | 0.0 | 2.0 | 0.02 | 0.15 | 0.15 | 89 | 1011.7 |
| 20260507184548 | 58 | 229 | 1.0 | 3.0 | 0.02 | 0.15 | 0.15 | 89 | 1011.5 |
| 20260507183043 | 58 | 229 | 1.0 | 5.0 | 0.02 | 0.15 | 0.15 | 88 | 1011.3 |
| 20260507181541 | 59 | 228 | 0.0 | 3.0 | 0.04 | 0.14 | 0.14 | 88 | 1011.2 |
| 20260507180040 | 59 | 228 | 0.0 | 3.0 | 0.06 | 0.13 | 0.13 | 87 | 1011.1 |
| 20260507174544 | 59 | 228 | 0.0 | 3.0 | 0.09 | 0.13 | 0.13 | 86 | 1010.9 |
| 20260507173037 | 59 | 228 | 0.0 | 3.0 | 0.09 | 0.13 | 0.13 | 84 | 1010.9 |
| 20260507171537 | 60 | 228 | 0.0 | 3.0 | 0.06 | 0.10 | 0.10 | 82 | 1010.8 |
| 20260507170042 | 60 | 228 | 1.0 | 4.0 | 0.04 | 0.08 | 0.08 | 81 | 1010.5 |
| 20260507164533 | 60 | 229 | 1.0 | 6.0 | 0.01 | 0.04 | 0.04 | 80 | 1010.3 |
| 20260507163032 | 62 | 192 | 1.0 | 7.0 | 0.01 | 0.04 | 0.04 | 81 | 1010.4 |
| 20260507161528 | 63 | 226 | 2.0 | 7.0 | 0.02 | 0.04 | 0.04 | 81 | 1010.3 |
| 20260507160027 | 64 | 182 | 3.0 | 6.0 | 0.02 | 0.04 | 0.04 | 79 | 1009.9 |
| 20260507154525 | 65 | 123 | 0.0 | 4.0 | 0.03 | 0.03 | 0.03 | 77 | 1010.0 |
| 20260507153024 | 66 | 117 | 1.0 | 3.0 | 0.03 | 0.03 | 0.03 | 74 | 1009.8 |
| 20260507151523 | 67 | 133 | 1.0 | 3.0 | 0.02 | 0.02 | 0.02 | 71 | 1009.8 |
| 20260507150031 | 69 | 112 | 2.0 | 4.0 | 0.02 | 0.02 | 0.02 | 66 | 1009.9 |
| 20260507144520 | 70 | 140 | 1.0 | 3.0 | 0.00 | 0.00 | 0.00 | 60 | 1009.7 |
| 20260507143025 | 70 | 132 | 2.0 | 10.0 | 0.00 | 0.00 | 0.00 | 58 | 1009.4 |
| 20260507141517 | 70 | 142 | 4.0 | 10.0 | 0.00 | 0.00 | 0.00 | 57 | 1009.2 |
| 20260507140116 | 71 | 164 | 1.0 | 8.0 | 0.00 | 0.00 | 0.00 | 57 | 1009.2 |
| 20260507134516 | 71 | 150 | 2.0 | 10.0 | 0.00 | 0.00 | 0.00 | 56 | 1009.1 |
| 20260507133016 | 72 | 180 | 7.0 | 12.0 | 0.00 | 0.00 | 0.00 | 55 | 1009.1 |
| 20260507131520 | 72 | 169 | 4.0 | 15.0 | 0.00 | 0.00 | 0.00 | 54 | 1009.0 |
| 20260507130015 | 72 | 173 | 6.0 | 15.0 | 0.00 | 0.00 | 0.00 | 54 | 1009.0 |
| 20260507124514 | 72 | 200 | 4.0 | 19.0 | 0.00 | 0.00 | 0.00 | 54 | 1008.9 |
| 20260507123014 | 72 | 148 | 3.0 | 11.0 | 0.00 | 0.00 | 0.00 | 55 | 1009.1 |
| 20260507121512 | 71 | 153 | 4.0 | 12.0 | 0.00 | 0.00 | 0.00 | 55 | 1009.2 |
| 20260507120023 | 71 | 181 | 5.0 | 16.0 | 0.00 | 0.00 | 0.00 | 53 | 1009.2 |
| 20260507114510 | 72 | 157 | 8.0 | 16.0 | 0.00 | 0.00 | 0.00 | 53 | 1009.1 |
| 20260507113009 | 72 | 140 | 8.0 | 14.0 | 0.00 | 0.00 | 0.00 | 55 | 1009.1 |
| 20260507111509 | 72 | 161 | 7.0 | 17.0 | 0.00 | 0.00 | 0.00 | 55 | 1008.9 |
| 20260507110007 | 72 | 132 | 3.0 | 14.0 | 0.00 | 0.00 | 0.00 | 55 | 1008.8 |
| 20260507104510 | 73 | 133 | 7.0 | 16.0 | 0.00 | 0.00 | 0.00 | 53 | 1008.7 |
| 20260507103006 | 73 | 126 | 7.0 | 17.0 | 0.00 | 0.00 | 0.00 | 51 | 1008.6 |
| 20260507101503 | 73 | 157 | 9.0 | 21.0 | 0.00 | 0.00 | 0.00 | 51 | 1008.5 |
| 20260507100001 | 73 | 129 | 8.0 | 18.0 | 0.00 | 0.00 | 0.00 | 51 | 1008.5 |
| 20260507094600 | 73 | 180 | 6.0 | 21.0 | 0.00 | 0.00 | 0.00 | 53 | 1008.5 |
| 20260507093059 | 72 | 136 | 6.0 | 14.0 | 0.00 | 0.00 | 0.00 | 54 | 1008.4 |
| 20260507091559 | 72 | 98 | 5.0 | 12.0 | 0.00 | 0.00 | 0.00 | 54 | 1008.3 |
| 20260507090057 | 72 | 131 | 5.0 | 15.0 | 0.00 | 0.00 | 0.00 | 54 | 1008.2 |
| 20260507084554 | 71 | 149 | 9.0 | 16.0 | 0.00 | 0.00 | 0.00 | 55 | 1008.1 |
| 20260507083048 | 70 | 123 | 7.0 | 15.0 | 0.00 | 0.00 | 0.00 | 57 | 1008.0 |
| 20260507081549 | 70 | 156 | 8.0 | 13.0 | 0.00 | 0.00 | 0.00 | 59 | 1007.9 |
| 20260507080048 | 70 | 132 | 5.0 | 12.0 | 0.00 | 0.00 | 0.00 | 60 | 1007.8 |
| 20260507073037 | 68 | 131 | 3.0 | 9.0 | 0.00 | 0.00 | 0.00 | 67 | 1007.9 |
| 20260507071535 | 67 | 118 | 2.0 | 7.0 | 0.00 | 0.00 | 0.00 | 67 | 1007.8 |
| 20260507070032 | 66 | 109 | 3.0 | 7.0 | 0.00 | 0.00 | 0.00 | 69 | 1007.6 |
| 20260507064529 | 66 | 136 | 3.0 | 7.0 | 0.00 | 0.00 | 0.00 | 71 | 1007.5 |
| 20260507063029 | 65 | 151 | 2.0 | 6.0 | 0.00 | 0.00 | 0.00 | 73 | 1007.5 |
| 20260507061524 | 64 | 190 | 1.0 | 7.0 | 0.00 | 0.00 | 0.00 | 73 | 1007.5 |
| 20260507060027 | 64 | 152 | 2.0 | 4.0 | 0.00 | 0.00 | 0.00 | 73 | 1007.3 |
| 20260507054521 | 63 | 153 | 2.0 | 4.0 | 0.00 | 0.00 | 0.00 | 73 | 1007.2 |
| 20260507053016 | 62 | 123 | 1.0 | 4.0 | 0.00 | 0.00 | 0.00 | 74 | 1007.2 |
| 20260507051515 | 61 | 124 | 1.0 | 3.0 | 0.00 | 0.00 | 0.00 | 74 | 1007.1 |
| 20260507050024 | 60 | 86 | 0.0 | 3.0 | 0.00 | 0.00 | 0.00 | 75 | 1007.1 |
| 20260507044510 | 59 | 26 | 0.0 | 2.0 | 0.00 | 0.00 | 0.00 | 76 | 1006.9 |
| 20260507043009 | 59 | 5 | 1.0 | 2.0 | 0.00 | 0.00 | 0.00 | 76 | 1006.6 |
| 20260507041508 | 58 | 84 | 0.0 | 2.0 | 0.00 | 0.00 | 0.00 | 78 | 1006.7 |
| 20260507040007 | 58 | 90 | 0.0 | 2.0 | 0.00 | 0.00 | 0.00 | 79 | 1006.5 |
| 20260507034506 | 58 | 86 | 0.0 | 1.0 | 0.00 | 0.00 | 0.00 | 78 | 1006.5 |
| 20260507033010 | 58 | 86 | 0.0 | 1.0 | 0.00 | 0.00 | 0.00 | 78 | 1006.4 |
| 20260507031506 | 58 | 86 | 0.0 | 3.0 | 0.00 | 0.00 | 0.00 | 76 | 1006.4 |
| 20260507030003 | 58 | 87 | 0.0 | 1.0 | 0.00 | 0.00 | 0.00 | 77 | 1006.2 |
| 20260507024501 | 58 | 85 | 0.0 | 1.0 | 0.00 | 0.00 | 0.00 | 78 | 1006.2 |